Time,TemperatureF,DewpointF,PressureIn,WindDirection,WindDirectionDegrees,WindSpeedMPH,WindSpeedGustMPH,Humidity,HourlyPrecipIn,Conditions,Clouds,dailyrainin,SoftwareType,DateUTC
2013-01-19 00:00:00,35.8,29.3,30.02,ESE,114,4.0,6.0,77,0.00,,---,0.00,VWS V14.01,2013-01-19 06:00:00,
2013-01-19 00:03:00,35.8,29.3,30.02,ESE,114,3.0,3.0,77,0.00,,---,0.00,VWS V14.01,2013-01-19 06:03:00,
2013-01-19 00:08:00,35.5,29.0,30.02,ESE,119,1.0,6.0,77,0.00,,---,0.00,VWS V14.01,2013-01-19 06:08:00,
2013-01-19 00:13:00,35.3,28.8,30.02,ESE,111,3.0,6.0,77,0.00,,---,0.00,VWS V14.01,2013-01-19 06:13:00,
2013-01-19 00:18:00,35.1,28.9,30.02,SE,132,5.0,6.0,78,0.00,,---,0.00,VWS V14.01,2013-01-19 06:18:00,
2013-01-19 00:23:00,35.0,28.9,30.02,SE,127,3.0,6.0,78,0.00,,---,0.00,VWS V14.01,2013-01-19 06:23:00,
2013-01-19 00:28:00,34.8,28.6,30.02,ESE,112,2.0,6.0,78,0.00,,---,0.00,VWS V14.01,2013-01-19 06:28:00,
2013-01-19 00:30:00,34.7,28.6,30.01,ESE,118,0.0,6.0,78,0.00,,---,0.00,VWS V14.01,2013-01-19 06:30:00,
2013-01-19 00:33:00,34.7,28.5,30.01,ESE,117,1.0,2.0,78,0.00,,---,0.00,VWS V14.01,2013-01-19 06:33:00,
2013-01-19 00:38:00,34.5,28.4,30.01,ESE,119,1.0,2.0,78,0.00,,---,0.00,VWS V14.01,2013-01-19 06:38:00,
2013-01-19 00:43:00,34.3,28.2,30.01,ESE,120,1.0,3.0,78,0.00,,---,0.00,VWS V14.01,2013-01-19 06:43:00,
2013-01-19 00:48:00,34.2,28.1,30.01,ESE,120,1.0,3.0,78,0.00,,---,0.00,VWS V14.01,2013-01-19 06:48:00,
2013-01-19 00:53:00,34.2,28.1,30.01,ESE,120,0.0,3.0,78,0.00,,---,0.00,VWS V14.01,2013-01-19 06:53:00,
2013-01-19 00:58:00,34.0,28.2,30.01,ESE,120,0.0,3.0,79,0.00,,---,0.00,VWS V14.01,2013-01-19 06:58:00,
2013-01-19 01:00:00,33.9,28.1,30.01,ESE,121,1.0,3.0,79,0.00,,---,0.00,VWS V14.01,2013-01-19 07:00:00,
2013-01-19 01:03:00,33.9,28.1,30.01,ESE,121,1.0,1.0,79,0.00,,---,0.00,VWS V14.01,2013-01-19 07:03:00,
2013-01-19 01:08:00,33.9,28.1,30.01,SE,126,1.0,3.0,79,0.00,,---,0.00,VWS V14.01,2013-01-19 07:08:00,
2013-01-19 01:13:00,33.7,27.9,30.01,SE,126,1.0,3.0,79,0.00,,---,0.00,VWS V14.01,2013-01-19 07:13:00,
2013-01-19 01:18:00,33.5,27.7,30.01,SE,126,0.0,3.0,79,0.00,,---,0.00,VWS V14.01,2013-01-19 07:18:00,
2013-01-19 01:23:00,33.2,27.7,30.01,SE,125,0.0,3.0,80,0.00,,---,0.00,VWS V14.01,2013-01-19 07:23:00,
2013-01-19 01:28:00,32.9,27.4,30.01,SE,126,0.0,3.0,80,0.00,,---,0.00,VWS V14.01,2013-01-19 07:28:00,
2013-01-19 01:30:00,32.9,27.7,30.01,SE,124,0.0,3.0,81,0.00,,---,0.00,VWS V14.01,2013-01-19 07:30:00,
2013-01-19 01:33:00,32.9,27.7,30.01,SE,124,0.0,0.0,81,0.00,,---,0.00,VWS V14.01,2013-01-19 07:33:00,
2013-01-19 01:38:00,33.0,27.8,30.00,SE,125,1.0,1.0,81,0.00,,---,0.00,VWS V14.01,2013-01-19 07:38:00,
2013-01-19 01:43:00,33.1,27.6,30.00,SE,125,0.0,1.0,80,0.00,,---,0.00,VWS V14.01,2013-01-19 07:43:00,
2013-01-19 01:48:00,33.3,27.8,30.00,SE,124,0.0,1.0,80,0.00,,---,0.00,VWS V14.01,2013-01-19 07:48:00,
2013-01-19 01:53:00,33.5,27.7,30.00,SE,126,1.0,1.0,79,0.00,,---,0.00,VWS V14.01,2013-01-19 07:53:00,
2013-01-19 01:58:00,33.8,28.0,30.01,SE,146,4.0,6.0,79,0.00,,---,0.00,VWS V14.01,2013-01-19 07:58:00,
2013-01-19 02:00:00,34.3,27.9,30.01,SE,142,5.0,8.0,77,0.00,,---,0.00,VWS V14.01,2013-01-19 08:00:00,
2013-01-19 02:03:00,34.2,27.8,30.02,SE,137,4.0,5.0,77,0.00,,---,0.00,VWS V14.01,2013-01-19 08:03:00,
2013-01-19 02:08:00,34.0,27.9,30.02,SE,134,4.0,6.0,78,0.00,,---,0.00,VWS V14.01,2013-01-19 08:08:00,
2013-01-19 02:13:00,33.8,27.7,30.02,ESE,121,0.0,6.0,78,0.00,,---,0.00,VWS V14.01,2013-01-19 08:13:00,
2013-01-19 02:18:00,33.7,27.6,30.02,ESE,121,2.0,6.0,78,0.00,,---,0.00,VWS V14.01,2013-01-19 08:18:00,
2013-01-19 02:23:00,33.6,27.5,30.02,SE,124,1.0,6.0,78,0.00,,---,0.00,VWS V14.01,2013-01-19 08:23:00,
2013-01-19 02:28:00,33.4,27.6,30.02,ESE,119,2.0,6.0,79,0.00,,---,0.00,VWS V14.01,2013-01-19 08:28:00,
2013-01-19 02:30:00,33.3,27.5,30.02,ESE,120,0.0,6.0,79,0.00,,---,0.00,VWS V14.01,2013-01-19 08:30:00,
2013-01-19 02:33:00,33.3,27.5,30.02,ESE,118,1.0,1.0,79,0.00,,---,0.00,VWS V14.01,2013-01-19 08:33:00,
2013-01-19 02:38:00,33.1,27.6,30.02,SE,124,1.0,3.0,80,0.00,,---,0.00,VWS V14.01,2013-01-19 08:38:00,
2013-01-19 02:43:00,33.1,27.6,30.02,SE,125,1.0,4.0,80,0.00,,---,0.00,VWS V14.01,2013-01-19 08:43:00,
2013-01-19 02:48:00,33.1,27.3,30.03,SSE,161,3.0,4.0,79,0.00,,---,0.00,VWS V14.01,2013-01-19 08:48:00,
2013-01-19 02:53:00,33.5,27.1,30.03,SE,127,1.0,5.0,77,0.00,,---,0.00,VWS V14.01,2013-01-19 08:53:00,
2013-01-19 02:58:00,33.3,26.9,30.02,SE,126,1.0,5.0,77,0.00,,---,0.00,VWS V14.01,2013-01-19 08:58:00,
2013-01-19 03:00:00,33.2,27.1,30.02,ESE,116,1.0,5.0,78,0.00,,---,0.00,VWS V14.01,2013-01-19 09:00:00,
2013-01-19 03:03:00,33.2,27.1,30.02,ESE,116,1.0,1.0,78,0.00,,---,0.00,VWS V14.01,2013-01-19 09:03:00,
2013-01-19 03:08:00,33.2,27.1,30.02,ESE,117,1.0,3.0,78,0.00,,---,0.00,VWS V14.01,2013-01-19 09:08:00,
2013-01-19 03:13:00,33.2,26.8,30.02,SE,130,1.0,3.0,77,0.00,,---,0.00,VWS V14.01,2013-01-19 09:13:00,
2013-01-19 03:18:00,33.5,26.8,30.02,SE,132,2.0,4.0,76,0.00,,---,0.00,VWS V14.01,2013-01-19 09:18:00,
2013-01-19 03:23:00,33.7,26.6,30.03,SE,127,0.0,5.0,75,0.00,,---,0.00,VWS V14.01,2013-01-19 09:23:00,
2013-01-19 03:28:00,33.5,26.4,30.03,SE,127,0.0,5.0,75,0.00,,---,0.00,VWS V14.01,2013-01-19 09:28:00,
2013-01-19 03:30:00,33.3,26.6,30.03,SE,127,1.0,5.0,76,0.00,,---,0.00,VWS V14.01,2013-01-19 09:30:00,
2013-01-19 03:33:00,33.3,26.6,30.03,SE,127,1.0,5.0,76,0.00,,---,0.00,VWS V14.01,2013-01-19 09:33:00,
2013-01-19 03:38:00,33.2,26.1,30.03,ESE,120,2.0,3.0,75,0.00,,---,0.00,VWS V14.01,2013-01-19 09:38:00,
2013-01-19 03:43:00,33.2,26.1,30.03,SE,125,3.0,4.0,75,0.00,,---,0.00,VWS V14.01,2013-01-19 09:43:00,
2013-01-19 03:48:00,33.3,26.2,30.03,SE,134,2.0,4.0,75,0.00,,---,0.00,VWS V14.01,2013-01-19 09:48:00,
2013-01-19 03:53:00,33.4,26.0,30.03,ESE,119,1.0,5.0,74,0.00,,---,0.00,VWS V14.01,2013-01-19 09:53:00,
2013-01-19 03:58:00,33.3,26.2,30.03,ESE,118,2.0,5.0,75,0.00,,---,0.00,VWS V14.01,2013-01-19 09:58:00,
2013-01-19 04:00:00,33.5,26.1,30.04,ESE,113,5.0,9.0,74,0.00,,---,0.00,VWS V14.01,2013-01-19 10:00:00,
2013-01-19 04:03:00,33.4,26.0,30.03,ESE,122,4.0,9.0,74,0.00,,---,0.00,VWS V14.01,2013-01-19 10:03:00,
2013-01-19 04:08:00,33.9,26.2,30.03,ESE,123,3.0,7.0,73,0.00,,---,0.00,VWS V14.01,2013-01-19 10:08:00,
2013-01-19 04:13:00,34.4,26.3,30.03,SE,130,6.0,9.0,72,0.00,,---,0.00,VWS V14.01,2013-01-19 10:13:00,
2013-01-19 04:18:00,34.7,26.3,30.03,SE,126,3.0,9.0,71,0.00,,---,0.00,VWS V14.01,2013-01-19 10:18:00,
2013-01-19 04:23:00,34.3,25.9,30.04,ESE,123,2.0,9.0,71,0.00,,---,0.00,VWS V14.01,2013-01-19 10:23:00,
2013-01-19 04:28:00,34.3,26.2,30.04,SE,145,3.0,9.0,72,0.00,,---,0.00,VWS V14.01,2013-01-19 10:28:00,
2013-01-19 04:30:00,34.5,25.7,30.04,ESE,118,4.0,9.0,70,0.00,,---,0.00,VWS V14.01,2013-01-19 10:30:00,
2013-01-19 04:33:00,34.5,25.7,30.04,ESE,120,5.0,9.0,70,0.00,,---,0.00,VWS V14.01,2013-01-19 10:33:00,
2013-01-19 04:38:00,34.8,26.0,30.04,SE,131,4.0,7.0,70,0.00,,---,0.00,VWS V14.01,2013-01-19 10:38:00,
2013-01-19 04:43:00,34.8,26.0,30.04,SE,130,4.0,7.0,70,0.00,,---,0.00,VWS V14.01,2013-01-19 10:43:00,
2013-01-19 04:48:00,34.8,25.7,30.04,SSE,151,4.0,8.0,69,0.00,,---,0.00,VWS V14.01,2013-01-19 10:48:00,
2013-01-19 04:53:00,35.1,25.6,30.03,SE,131,3.0,8.0,68,0.00,,---,0.00,VWS V14.01,2013-01-19 10:53:00,
2013-01-19 04:58:00,35.2,25.7,30.03,SE,127,3.0,8.0,68,0.00,,---,0.00,VWS V14.01,2013-01-19 10:58:00,
2013-01-19 05:00:00,35.1,25.6,30.04,SE,132,2.0,8.0,68,0.00,,---,0.00,VWS V14.01,2013-01-19 11:00:00,
2013-01-19 05:03:00,35.1,25.6,30.04,SE,132,3.0,8.0,68,0.00,,---,0.00,VWS V14.01,2013-01-19 11:03:00,
2013-01-19 05:08:00,35.3,25.5,30.04,SSE,152,3.0,8.0,67,0.00,,---,0.00,VWS V14.01,2013-01-19 11:08:00,
2013-01-19 05:13:00,35.4,25.5,30.04,SE,133,3.0,8.0,67,0.00,,---,0.00,VWS V14.01,2013-01-19 11:13:00,
2013-01-19 05:30:00,35.9,25.7,30.04,SE,127,4.0,8.0,66,0.00,,---,0.00,VWS V14.01,2013-01-19 11:30:00,
2013-01-19 06:00:00,36.1,26.2,30.05,SE,137,4.0,6.0,67,0.00,,---,0.00,VWS V14.01,2013-01-19 12:00:00,
2013-01-19 06:30:00,36.6,26.0,30.07,SE,137,5.0,13.0,65,0.00,,---,0.00,VWS V14.01,2013-01-19 12:30:00,
2013-01-19 06:47:00,36.9,25.9,30.07,SE,146,7.0,12.0,64,0.00,,---,0.00,VWS V14.01,2013-01-19 12:47:00,
2013-01-19 06:48:00,36.8,25.8,30.08,ESE,123,8.0,12.0,64,0.00,,---,0.00,VWS V14.01,2013-01-19 12:48:00,
2013-01-19 06:53:00,36.7,25.7,30.08,SSE,160,4.0,12.0,64,0.00,,---,0.00,VWS V14.01,2013-01-19 12:53:00,
2013-01-19 06:58:00,36.6,25.6,30.08,SE,144,4.0,12.0,64,0.00,,---,0.00,VWS V14.01,2013-01-19 12:58:00,
2013-01-19 07:00:00,36.6,25.6,30.08,SE,141,6.0,12.0,64,0.00,,---,0.00,VWS V14.01,2013-01-19 13:00:00,
2013-01-19 07:03:00,36.6,25.6,30.08,SSE,166,3.0,6.0,64,0.00,,---,0.00,VWS V14.01,2013-01-19 13:03:00,
2013-01-19 07:08:00,36.8,25.4,30.09,South,170,5.0,10.0,63,0.00,,---,0.00,VWS V14.01,2013-01-19 13:08:00,
2013-01-19 07:13:00,37.0,25.2,30.09,SSE,157,5.0,12.0,62,0.00,,---,0.00,VWS V14.01,2013-01-19 13:13:00,
2013-01-19 07:18:00,37.1,25.3,30.09,SSE,160,4.0,12.0,62,0.00,,---,0.00,VWS V14.01,2013-01-19 13:18:00,
2013-01-19 07:23:00,36.9,25.1,30.09,SSE,154,4.0,12.0,62,0.00,,---,0.00,VWS V14.01,2013-01-19 13:23:00,
2013-01-19 07:28:00,36.7,25.3,30.10,SSE,163,4.0,12.0,63,0.00,,---,0.00,VWS V14.01,2013-01-19 13:28:00,
2013-01-19 07:30:00,36.6,25.2,30.10,SE,141,3.0,12.0,63,0.00,,---,0.00,VWS V14.01,2013-01-19 13:30:00,
2013-01-19 07:33:00,36.6,25.2,30.10,SSE,155,7.0,7.0,63,0.00,,---,0.00,VWS V14.01,2013-01-19 13:33:00,
2013-01-19 07:38:00,36.5,25.1,30.10,South,173,3.0,10.0,63,0.00,,---,0.00,VWS V14.01,2013-01-19 13:38:00,
2013-01-19 07:43:00,36.5,25.1,30.10,SSE,165,2.0,10.0,63,0.00,,---,0.00,VWS V14.01,2013-01-19 13:43:00,
2013-01-19 07:48:00,36.7,25.3,30.11,SE,146,8.0,12.0,63,0.00,,---,0.00,VWS V14.01,2013-01-19 13:48:00,
2013-01-19 07:53:00,36.9,25.1,30.11,SSE,149,4.0,12.0,62,0.00,,---,0.00,VWS V14.01,2013-01-19 13:53:00,
2013-01-19 07:58:00,37.0,25.2,30.11,SE,146,4.0,12.0,62,0.00,,---,0.00,VWS V14.01,2013-01-19 13:58:00,
2013-01-19 08:00:00,37.1,25.3,30.12,SSE,155,4.0,12.0,62,0.00,,---,0.00,VWS V14.01,2013-01-19 14:00:00,
2013-01-19 08:03:00,37.1,25.3,30.12,SSE,162,1.0,3.0,62,0.00,,---,0.00,VWS V14.01,2013-01-19 14:03:00,
2013-01-19 08:08:00,37.5,25.3,30.12,SE,138,5.0,9.0,61,0.00,,---,0.00,VWS V14.01,2013-01-19 14:08:00,
2013-01-19 08:13:00,37.4,25.2,30.12,SE,141,2.0,9.0,61,0.00,,---,0.00,VWS V14.01,2013-01-19 14:13:00,
2013-01-19 08:18:00,36.9,25.1,30.12,SSE,149,3.0,9.0,62,0.00,,---,0.00,VWS V14.01,2013-01-19 14:18:00,
2013-01-19 08:23:00,36.5,25.5,30.13,SSE,157,6.0,9.0,64,0.00,,---,0.00,VWS V14.01,2013-01-19 14:23:00,
2013-01-19 08:28:00,36.2,25.2,30.13,SE,146,1.0,9.0,64,0.00,,---,0.00,VWS V14.01,2013-01-19 14:28:00,
2013-01-19 08:30:00,36.3,25.7,30.13,SE,135,5.0,9.0,65,0.00,,---,0.00,VWS V14.01,2013-01-19 14:30:00,
2013-01-19 08:33:00,36.3,25.7,30.13,ESE,123,4.0,5.0,65,0.00,,---,0.00,VWS V14.01,2013-01-19 14:33:00,
2013-01-19 08:38:00,36.4,25.4,30.14,SSE,159,2.0,8.0,64,0.00,,---,0.00,VWS V14.01,2013-01-19 14:38:00,
2013-01-19 08:43:00,36.8,25.8,30.14,SE,137,5.0,10.0,64,0.00,,---,0.00,VWS V14.01,2013-01-19 14:43:00,
2013-01-19 08:48:00,37.2,25.8,30.14,SE,146,5.0,10.0,63,0.00,,---,0.00,VWS V14.01,2013-01-19 14:48:00,
2013-01-19 08:53:00,37.4,26.0,30.14,SE,140,7.0,10.0,63,0.00,,---,0.00,VWS V14.01,2013-01-19 14:53:00,
2013-01-19 08:58:00,37.8,26.0,30.15,SSE,148,6.0,10.0,62,0.00,,---,0.00,VWS V14.01,2013-01-19 14:58:00,
2013-01-19 09:00:00,37.9,26.1,30.15,SE,141,5.0,10.0,62,0.00,,---,0.00,VWS V14.01,2013-01-19 15:00:00,
2013-01-19 09:03:00,37.9,26.1,30.15,SE,145,2.0,6.0,62,0.00,,---,0.00,VWS V14.01,2013-01-19 15:03:00,
2013-01-19 09:08:00,38.1,26.2,30.16,SE,138,3.0,7.0,62,0.00,,---,0.00,VWS V14.01,2013-01-19 15:08:00,
2013-01-19 09:13:00,38.4,26.5,30.16,SSE,148,5.0,7.0,62,0.00,,---,0.00,VWS V14.01,2013-01-19 15:13:00,
2013-01-19 09:18:00,38.9,26.6,30.16,SSE,149,6.0,7.0,61,0.00,,---,0.00,VWS V14.01,2013-01-19 15:18:00,
2013-01-19 09:23:00,39.4,26.7,30.16,ESE,120,3.0,9.0,60,0.00,,---,0.00,VWS V14.01,2013-01-19 15:23:00,
2013-01-19 09:28:00,39.8,27.1,30.17,SE,137,4.0,9.0,60,0.00,,---,0.00,VWS V14.01,2013-01-19 15:28:00,
2013-01-19 09:30:00,40.1,26.9,30.17,SE,146,5.0,9.0,59,0.00,,---,0.00,VWS V14.01,2013-01-19 15:30:00,
2013-01-19 09:33:00,40.1,26.9,30.17,SE,144,7.0,7.0,59,0.00,,---,0.00,VWS V14.01,2013-01-19 15:33:00,
2013-01-19 09:38:00,40.6,27.0,30.17,SE,142,5.0,9.0,58,0.00,,---,0.00,VWS V14.01,2013-01-19 15:38:00,
2013-01-19 09:43:00,41.1,27.5,30.17,SSE,149,6.0,9.0,58,0.00,,---,0.00,VWS V14.01,2013-01-19 15:43:00,
2013-01-19 09:48:00,41.5,27.4,30.17,SSE,160,4.0,9.0,57,0.00,,---,0.00,VWS V14.01,2013-01-19 15:48:00,
2013-01-19 09:53:00,41.9,27.4,30.18,SE,139,4.0,10.0,56,0.00,,---,0.00,VWS V14.01,2013-01-19 15:53:00,
2013-01-19 09:58:00,42.2,27.6,30.18,SE,142,5.0,10.0,56,0.00,,---,0.00,VWS V14.01,2013-01-19 15:58:00,
2013-01-19 10:00:00,42.4,27.8,30.18,SSE,148,3.0,10.0,56,0.00,,---,0.00,VWS V14.01,2013-01-19 16:00:00,
2013-01-19 10:03:00,42.5,27.9,30.18,SSE,154,3.0,4.0,56,0.00,,---,0.00,VWS V14.01,2013-01-19 16:03:00,
2013-01-19 10:08:00,42.9,27.9,30.19,SE,145,4.0,8.0,55,0.00,,---,0.00,VWS V14.01,2013-01-19 16:08:00,
2013-01-19 10:13:00,43.3,28.2,30.19,SSE,151,4.0,8.0,55,0.00,,---,0.00,VWS V14.01,2013-01-19 16:13:00,
2013-01-19 10:18:00,43.7,28.2,30.19,SE,135,4.0,9.0,54,0.00,,---,0.00,VWS V14.01,2013-01-19 16:18:00,
2013-01-19 10:23:00,44.0,28.4,30.19,SE,133,4.0,10.0,54,0.00,,---,0.00,VWS V14.01,2013-01-19 16:23:00,
2013-01-19 10:28:00,44.4,28.8,30.19,SE,133,6.0,10.0,54,0.00,,---,0.00,VWS V14.01,2013-01-19 16:28:00,
2013-01-19 10:30:00,45.0,28.9,30.19,SE,139,9.0,10.0,53,0.00,,---,0.00,VWS V14.01,2013-01-19 16:30:00,
2013-01-19 10:33:00,45.1,29.0,30.19,SSE,165,6.0,10.0,53,0.00,,---,0.00,VWS V14.01,2013-01-19 16:33:00,
2013-01-19 10:38:00,45.9,28.8,30.19,ESE,117,7.0,11.0,51,0.00,,---,0.00,VWS V14.01,2013-01-19 16:38:00,
2013-01-19 10:43:00,46.5,28.9,30.19,SE,126,5.0,11.0,50,0.00,,---,0.00,VWS V14.01,2013-01-19 16:43:00,
2013-01-19 10:48:00,46.8,28.7,30.19,South,173,4.0,12.0,49,0.00,,---,0.00,VWS V14.01,2013-01-19 16:48:00,
2013-01-19 10:53:00,47.2,28.5,30.20,SSE,165,2.0,12.0,48,0.00,,---,0.00,VWS V14.01,2013-01-19 16:53:00,
2013-01-19 10:58:00,47.8,29.1,30.19,ESE,123,5.0,12.0,48,0.00,,---,0.00,VWS V14.01,2013-01-19 16:58:00,
2013-01-19 11:00:00,48.2,29.5,30.19,SE,126,4.0,12.0,48,0.00,,---,0.00,VWS V14.01,2013-01-19 17:00:00,
2013-01-19 11:03:00,48.3,29.5,30.19,SSE,153,3.0,6.0,48,0.00,,---,0.00,VWS V14.01,2013-01-19 17:03:00,
2013-01-19 11:09:00,48.8,29.5,30.19,SSE,160,2.0,12.0,47,0.00,,---,0.00,VWS V14.01,2013-01-19 17:09:00,
2013-01-19 11:14:00,49.4,29.0,30.19,SSE,165,5.0,12.0,45,0.00,,---,0.00,VWS V14.01,2013-01-19 17:14:00,
2013-01-19 11:19:00,49.9,28.9,30.19,SSW,196,5.0,15.0,44,0.00,,---,0.00,VWS V14.01,2013-01-19 17:19:00,
2013-01-19 11:24:00,50.5,27.7,30.19,SSE,165,8.0,15.0,41,0.00,,---,0.00,VWS V14.01,2013-01-19 17:24:00,
2013-01-19 11:29:00,50.8,28.0,30.18,SSE,150,6.0,19.0,41,0.00,,---,0.00,VWS V14.01,2013-01-19 17:29:00,
2013-01-19 11:30:00,51.2,28.3,30.19,SSE,154,4.0,19.0,41,0.00,,---,0.00,VWS V14.01,2013-01-19 17:30:00,
2013-01-19 11:34:00,51.2,28.3,30.18,SSE,156,7.0,13.0,41,0.00,,---,0.00,VWS V14.01,2013-01-19 17:34:00,
2013-01-19 11:39:00,51.6,28.7,30.18,SSE,154,11.0,16.0,41,0.00,,---,0.00,VWS V14.01,2013-01-19 17:39:00,
2013-01-19 11:44:00,51.9,28.4,30.18,SSE,166,6.0,16.0,40,0.00,,---,0.00,VWS V14.01,2013-01-19 17:44:00,
2013-01-19 11:49:00,52.2,28.0,30.18,SSE,156,10.0,17.0,39,0.00,,---,0.00,VWS V14.01,2013-01-19 17:49:00,
2013-01-19 11:54:00,52.5,28.3,30.17,SE,144,9.0,17.0,39,0.00,,---,0.00,VWS V14.01,2013-01-19 17:54:00,
2013-01-19 11:59:00,52.8,27.9,30.18,SSE,166,9.0,17.0,38,0.00,,---,0.00,VWS V14.01,2013-01-19 17:59:00,
2013-01-19 12:00:00,53.0,28.1,30.18,South,190,7.0,17.0,38,0.00,,---,0.00,VWS V14.01,2013-01-19 18:00:00,
2013-01-19 12:04:00,53.1,27.5,30.18,South,175,14.0,14.0,37,0.00,,---,0.00,VWS V14.01,2013-01-19 18:04:00,
2013-01-19 12:09:00,53.4,27.1,30.17,SSE,153,6.0,14.0,36,0.00,,---,0.00,VWS V14.01,2013-01-19 18:09:00,
2013-01-19 12:14:00,53.7,26.7,30.17,South,173,9.0,21.0,35,0.00,,---,0.00,VWS V14.01,2013-01-19 18:14:00,
2013-01-19 12:19:00,53.9,26.9,30.17,SSE,163,8.0,21.0,35,0.00,,---,0.00,VWS V14.01,2013-01-19 18:19:00,
2013-01-19 12:24:00,54.2,27.2,30.17,SE,142,15.0,21.0,35,0.00,,---,0.00,VWS V14.01,2013-01-19 18:24:00,
2013-01-19 12:29:00,54.4,28.0,30.17,SE,144,14.0,21.0,36,0.00,,---,0.00,VWS V14.01,2013-01-19 18:29:00,
2013-01-19 12:30:00,54.6,27.5,30.17,SSE,153,5.0,21.0,35,0.00,,---,0.00,VWS V14.01,2013-01-19 18:30:00,
2013-01-19 12:34:00,54.7,27.6,30.17,South,185,11.0,12.0,35,0.00,,---,0.00,VWS V14.01,2013-01-19 18:34:00,
2013-01-19 12:40:00,54.8,26.3,30.16,South,173,10.0,18.0,33,0.00,,---,0.00,VWS V14.01,2013-01-19 18:40:00,
2013-01-19 12:45:00,54.9,26.4,30.16,South,175,9.0,19.0,33,0.00,,---,0.00,VWS V14.01,2013-01-19 18:45:00,
2013-01-19 12:50:00,55.0,26.5,30.16,SSE,152,8.0,19.0,33,0.00,,---,0.00,VWS V14.01,2013-01-19 18:50:00,
2013-01-19 12:55:00,55.0,26.5,30.16,SSW,207,7.0,19.0,33,0.00,,---,0.00,VWS V14.01,2013-01-19 18:55:00,
2013-01-19 13:00:00,54.9,26.4,30.16,South,182,11.0,19.0,33,0.00,,---,0.00,VWS V14.01,2013-01-19 19:00:00,
2013-01-19 13:01:00,54.9,26.4,30.16,South,190,10.0,19.0,33,0.00,,---,0.00,VWS V14.01,2013-01-19 19:01:00,
2013-01-19 13:06:00,54.9,26.4,30.16,SW,222,9.0,21.0,33,0.00,,---,0.00,VWS V14.01,2013-01-19 19:06:00,
2013-01-19 13:11:00,54.9,26.4,30.16,SSE,160,15.0,21.0,33,0.00,,---,0.00,VWS V14.01,2013-01-19 19:11:00,
2013-01-19 13:17:00,54.8,27.0,30.16,SE,137,5.0,21.0,34,0.00,,---,0.00,VWS V14.01,2013-01-19 19:17:00,
2013-01-19 13:22:00,55.0,27.2,30.16,SSW,213,16.0,21.0,34,0.00,,---,0.00,VWS V14.01,2013-01-19 19:22:00,
2013-01-19 13:27:00,55.0,27.2,30.16,South,175,7.0,21.0,34,0.00,,---,0.00,VWS V14.01,2013-01-19 19:27:00,
2013-01-19 13:30:00,55.1,27.3,30.16,South,176,6.0,24.0,34,0.00,,---,0.00,VWS V14.01,2013-01-19 19:30:00,
2013-01-19 13:32:00,55.0,27.2,30.16,SSE,156,9.0,24.0,34,0.00,,---,0.00,VWS V14.01,2013-01-19 19:32:00,
2013-01-19 13:37:00,55.1,27.3,30.16,South,173,9.0,13.0,34,0.00,,---,0.00,VWS V14.01,2013-01-19 19:37:00,
2013-01-19 13:42:00,55.2,28.0,30.16,South,175,5.0,13.0,35,0.00,,---,0.00,VWS V14.01,2013-01-19 19:42:00,
2013-01-19 13:47:00,55.2,27.3,30.16,South,179,10.0,20.0,34,0.00,,---,0.00,VWS V14.01,2013-01-19 19:47:00,
2013-01-19 13:52:00,55.1,27.3,30.16,ESE,123,17.0,20.0,34,0.00,,---,0.00,VWS V14.01,2013-01-19 19:52:00,
2013-01-19 13:57:00,55.1,27.3,30.16,SW,218,17.0,20.0,34,0.00,,---,0.00,VWS V14.01,2013-01-19 19:57:00,
2013-01-19 14:00:00,55.2,27.3,30.16,SSE,163,10.0,20.0,34,0.00,,---,0.00,VWS V14.01,2013-01-19 20:00:00,
2013-01-19 14:02:00,55.2,27.3,30.16,SSE,165,11.0,20.0,34,0.00,,---,0.00,VWS V14.01,2013-01-19 20:02:00,
2013-01-19 14:07:00,55.3,26.7,30.16,SSE,163,8.0,17.0,33,0.00,,---,0.00,VWS V14.01,2013-01-19 20:07:00,
2013-01-19 14:12:00,55.3,26.0,30.16,SE,130,16.0,23.0,32,0.00,,---,0.00,VWS V14.01,2013-01-19 20:12:00,
2013-01-19 14:34:00,54.9,26.4,30.17,South,182,9.0,9.0,33,0.00,,---,0.00,VWS V14.01,2013-01-19 20:34:00,
2013-01-19 14:39:00,55.0,26.5,30.17,South,176,5.0,16.0,33,0.00,,---,0.00,VWS V14.01,2013-01-19 20:39:00,